Regional Weather Roundup
Issued by NWS Newport/Morehead, NC

Current Version | Previous Version | Text Only | Print | Product List | Glossary On
Versions: 1 2 3 4 5 6 7 8 9 10 11 12 13 14 15 16 17 18 19 20 21 22 23 24 25 26 27 28 29 30 31 32 33 34 35 36 37 38 39 40 41 42 43 44 45 46 47 48 49 50
000
ASUS42 KMHX 280825
RWRMHX
WEATHER ROUNDUP FOR EASTERN NORTH CAROLINA
NATIONAL WEATHER SERVICE NEWPORT/MOREHEAD CITY NC
400 AM EDT SAT MAY 28 2016

NOTE: "FAIR" INDICATES FEW OR NO CLOUDS BELOW 12,000 FEET
WITH NO SIGNIFICANT WEATHER AND/OR OBSTRUCTIONS TO VISIBILITY

NCZ015>017-031-032-045>047-102-103-280900-
NORTH COAST

CITY           SKY/WX    TMP DP  RH WIND       PRES   REMARKS
EDENTON        CLEAR    N/A N/A N/A CALM      30.16S
ELIZABETH CITY CLEAR     62  61  96 CALM      30.15S
KITTY HAWK     SUNNY     64  62  93 CALM      30.14S
MANTEO         NOT AVBL

$$

NCZ045>047-081-094-103-104-280900-
CENTRAL COAST

CITY           SKY/WX    TMP DP  RH WIND       PRES   REMARKS
FRISCO         CLEAR     74  68  81 SE7       30.13F

$$

NCZ095-097-098-100-101-280900-
SOUTHERN COAST

CITY           SKY/WX    TMP DP  RH WIND       PRES   REMARKS
BEAUFORT       CLEAR     68  66  93 NE3       30.12S
CEDAR ISLAND   NOT AVBL
JACKSONVILLE   PTCLDY    64  61  90 N3        30.12S
PINEY ISLAND   SUNNY    N/A N/A N/A E5        30.13S
WILMINGTON     PTCLDY    64  63  96 NE6       30.11S


$$

NCZ011>013-027>030-043-044-078>080-089-090>093-098-280900-
COASTAL PLAIN

CITY           SKY/WX    TMP DP  RH WIND       PRES   REMARKS
AHOSKIE        CLEAR     58  58  98 CALM      30.16R FOG
CLINTON        PTCLDY    61  60  99 CALM      30.14S
ELIZABETHTOWN  CLEAR     63  63 100 CALM      30.12F
GOLDSBORO      CLEAR     59  59 100 CALM      30.13S
GREENVILLE     CLEAR     57  57 100 CALM      30.16S FOG
HAVELOCK       CLEAR     67  64  90 CALM      30.14S
KENANSVILLE    CLEAR     56  55  95 CALM      30.14F
KINSTON        PTCLDY    58  58  97 CALM      30.15S
NEW BERN       CLEAR     63  60  90 CALM      30.14F
RICHLANDS      CLEAR     59  58  96 NE3       30.14S
ROCKY MOUNT    CLEAR     58  57  97 CALM      30.15S
WASHINGTON     CLEAR     59  58  95 CALM      30.15S
WHITEVILLE     CLEAR     62  60  95 CALM      30.11S

$$

AMZ130-135-150-152-154-156-158-170-250-252-270-ANZ085-086-088-633-658-670-280900-
MARINE OBSERVATIONS

STATION/POSITION TIME  TEMP    WIND        PRES    WAVE   SWELL
                       AIR SEA DIR/SP/G            HT/PER HT/PER
                 (UTC) (F)     (DEG/KT/KT) (MB)    (FT/S) (FT/S)
CHESAPEAKE LIGHT 0800   67     190/ 13/ 14 1021.6
64 E VA BEACH    0750   66 61  160/  4/  4 1021.0    3/ 7   3/ 7
DUCK             0800   65 59  160/  6/  6 1020.3
2 E DUCK         0711      63                N/A     2/ 7
OREGON INLET     0800   67 78   80/  4/  4 1020.6
13E OREGON INLT  0800      69                N/A     3/ 9   3/ 9
HATTERAS CG      0800   74 74  120/  6/  7 1019.9
DIAMOND BUOY     0750   76 78  120/ 12/ 14 1020.0    4/ 8   3/ 8
CAPE LOOKOUT     0800   74     110/  8/  9 1019.4
BEAUFORT LAB     0800   72 73   30/  3/  4 1019.2
30 SE NEW RVR IN 0725      74                N/A     4/ 7
27 SE WRIGHTSVLE 0808   76 74  100/  8/ 12 1018.5
5 SE WRIGHTSVLE  0808   74 74   60/  6/  8 1020.0
225 S CAPE HAT   0750   76 77   90/ 17/ 19 1016.9    5/ 8   3/ 8
41 SE CHARLESTON 0750   76 76   30/ 10/ 10 1017.0    4/ 7   3/ 7

$$




USA.gov is the U.S. government's official web portal to all federal, state and local government web resources and services.